[TLELIST] Archives

 

[list_settings.list_name] Current TLEs

May 27th 2009 PDT

HST 1 20580U 90037B 09143.50804273 +.00000954 +00000-0 +60572-4 0 03985 2 20580 028.4709 263.3630 0002932 019.6409 340.3038 15.00805724846141 ISS (ZARYA) 1 25544U 98067A 09145.88362593 +.00013823 +00000-0 +10295-3 0 09192 2 25544 051.6410 061.3262 0009693 043.8363 356.1448 15.73071691602440 CXO 1 25867U 99040B 09145.33333333 +.00000385 +00000-0 +10000-3 0 03290 2 25867 065.3593 069.9597 7476723 276.0490 357.6820 00.37795612004926 ____________________________________________________________________ These 2-Line ...Continue Reading

[list_settings.list_name] Current TLEs

May 26th 2009 PDT

HST 1 20580U 90037B 09143.50804273 +.00000954 +00000-0 +60572-4 0 03985 2 20580 028.4709 263.3630 0002932 019.6409 340.3038 15.00805724846141 ISS (ZARYA) 1 25544U 98067A 09145.49287037 .00013738 00000-0 10240-3 0 9171 2 25544 051.6407 063.3307 0009737 042.1895 303.4336 15.73059835602378 CXO 1 25867U 99040B 09145.33333333 +.00000385 +00000-0 +10000-3 0 03290 2 25867 065.3593 069.9597 7476723 276.0490 357.6820 00.37795612004926 ____________________________________________________________________ These 2-Line ...Continue Reading

[list_settings.list_name] Current TLEs

May 25th 2009 PDT

HST 1 20580U 90037B 09143.50804273 +.00000954 +00000-0 +60572-4 0 03985 2 20580 028.4709 263.3630 0002932 019.6409 340.3038 15.00805724846141 ISS (ZARYA) 1 25544U 98067A 09144.53972222 .00013070 00000-0 97770-4 0 9108 2 25544 051.6402 068.2180 0009738 038.8851 305.4479 15.73029767602226 CXO 1 25867U 99040B 09142.70833333 +.00000516 +00000-0 +10000-3 0 03299 2 25867 065.3434 070.0684 7475170 276.0831 000.2633 00.37804012004911 ____________________________________________________________________ These 2-Line ...Continue Reading

[list_settings.list_name] Current TLEs

May 24th 2009 PDT

HST 1 20580U 90037B 09141.51306896 .00000176 00000-0 13541-4 0 3971 2 20580 028.4707 276.3842 0004229 004.3669 355.7334 15.00804121845843 ISS (ZARYA) 1 25544U 98067A 09143.85131362 .00012822 00000-0 96085-4 0 9072 2 25544 051.6398 071.7474 0009780 036.1921 007.1411 15.73009967602122 CXO 1 25867U 99040B 09142.70833333 +.00000516 +00000-0 +10000-3 0 03299 2 25867 065.3434 070.0684 7475170 276.0831 000.2633 00.37804012004911 ____________________________________________________________________ These 2-Line ...Continue Reading

[list_settings.list_name] Current TLEs

May 23rd 2009 PDT

HST 1 20580U 90037B 09141.51306896 .00000176 00000-0 13541-4 0 3971 2 20580 028.4707 276.3842 0004229 004.3669 355.7334 15.00804121845843 ISS (ZARYA) 1 25544U 98067A 09142.34422583 .00012773 00000-0 95901-4 0 8972 2 25544 051.6397 079.4754 0009705 031.2461 112.0560 15.72969183601886 CXO 1 25867U 99040B 09142.70833333 +.00000516 +00000-0 +10000-3 0 03299 2 25867 065.3434 070.0684 7475170 276.0831 000.2633 00.37804012004911 ____________________________________________________________________ These 2-Line ...Continue Reading

[list_settings.list_name] Current TLEs

May 21st 2009 PDT

HST 1 20580U 90037B 09139.71753166 +.00017295 +00000-0 +13165-2 0 03921 2 20580 028.4698 288.0555 0001537 037.5056 322.4739 15.00761245845579 ISS (ZARYA) 1 25544U 98067A 09139.92127664 +.00011689 +00000-0 +88405-4 0 08846 2 25544 051.6392 091.8962 0009770 022.3416 071.5900 15.72902606601506 CXO 1 25867U 99040B 09140.04166667 +.00000587 +00000-0 +10000-3 0 03279 2 25867 065.3253 070.1974 7473017 276.0693 357.2867 00.37809176004906 ____________________________________________________________________ These 2-Line ...Continue Reading

[list_settings.list_name] Current TLEs

May 20th 2009 PDT

HST 1 20580U 90037B 09139.25487269 .00034212 00000-0 26052-2 0 3914 2 20580 028.4699 291.1210 0003283 335.1403 040.1721 15.00832325845502 ISS (ZARYA) 1 25544U 98067A 09138.90838578 +.00012372 +00000-0 +93392-4 0 08779 2 25544 051.6395 097.0887 0009621 018.5011 096.1747 15.72879981601349 CXO 1 25867U 99040B 09140.04166667 +.00000587 +00000-0 +10000-3 0 03279 2 25867 065.3253 070.1974 7473017 276.0693 357.2867 00.37809176004906 ____________________________________________________________________ These 2-Line ...Continue Reading

[list_settings.list_name] Current TLEs

May 19th 2009 PDT

HST 1 20580U 90037B 09137.53482258 +.00028797 +00000-0 +21992-2 0 03892 2 20580 028.4711 302.3440 0003490 318.3053 105.5759 15.00716346845243 ISS (ZARYA) 1 25544U 98067A 09139.17489583 .00012349 00000-0 93201-4 0 8792 2 25544 051.6390 095.7223 0009583 020.1639 164.6062 15.72886232601387 CXO 1 25867U 99040B 09137.41666667 +.00000529 +00000-0 +10000-3 0 03266 2 25867 065.3117 070.2838 7468658 276.0614 359.9980 00.37806827004896 ____________________________________________________________________ These 2-Line ...Continue Reading

[list_settings.list_name] Current TLEs

May 18th 2009 PDT

HST 1 20580U 90037B 09136.53526759 +.00019421 +00000-0 +14844-2 0 03887 2 20580 028.4723 308.8659 0002538 310.1905 103.0499 15.00631209845098 ISS (ZARYA) 1 25544U 98067A 09137.50842830 .00012694 00000-0 95854-4 0 8693 2 25544 051.6396 104.2640 0009336 014.2838 088.0754 15.72844444601121 CXO 1 25867U 99040B 09137.41666667 +.00000529 +00000-0 +10000-3 0 03266 2 25867 065.3117 070.2838 7468658 276.0614 359.9980 00.37806827004896 ____________________________________________________________________ These 2-Line ...Continue Reading

[list_settings.list_name] Current TLEs

May 17th 2009 PDT

HST 1 20580U 90037B 09134.53767208 +.00042590 +00000-0 +32649-2 0 03876 2 20580 028.4844 321.9009 0002635 308.8673 091.8764 15.00571298844797 ISS (ZARYA) 1 25544U 98067A 09136.80634757 .00011650 00000-0 88442-4 0 8643 2 25544 051.6393 107.8636 0009365 011.4018 072.9365 15.72821041601019 CXO 1 25867U 99040B 09134.75000000 +.00000409 +00000-0 +10000-3 0 03237 2 25867 065.3014 070.3515 7464332 276.0653 357.0083 00.37805998004883 ____________________________________________________________________ These 2-Line ...Continue Reading
  • This mailing list is a public mailing list - anyone may join or leave, at any time.
  • This mailing list is announce-only.

International Space Station (ISS) / Hubble Space Telescope (HST) / Chandra X-Ray Observatory Orbital Data via EMAIL

Privacy Policy:

Private list